Regional Weather Roundup
Issued by NWS

Home | Current Version | Previous Version | Text Only | Print | Product List | Glossary Off
Versions: 1 2 3 4 5 6 7 8 9 10 11 12 13 14 15 16 17 18 19 20 21 22 23 24 25 26 27 28 29 30 31 32 33 34 35 36 37 38 39 40 41 42 43 44 45 46 47 48 49 50

898
ASUS43 KLSX 291810
RWRMO

WEATHER SUMMARY FOR MISSOURI
NATIONAL WEATHER SERVICE SPRINGFIELD MO
100 PM CDT MON MAY 29 2017

NOTE: "FAIR" INDICATES FEW OR NO CLOUDS BELOW 12,000 FEET WITH NO
       SIGNIFICANT WEATHER AND/OR OBSTRUCTIONS TO VISIBILITY.
       CURRENT SKY AND/OR WEATHER CONDITIONS ARE NOT AVAILABLE FOR
       CHILLICOTHE AND FARMINGTON.

MOZ001>031-035>038-043-044-053-054-291900-
...NORTHERN AND WESTERN MISSOURI...

CITY           SKY/WX    TMP DP  RH WIND       PRES   REMARKS
KANSAS CTY INT MOSUNNY   77  50  38 NW13      30.00F
6HR MIN TEMP:  58; 6HR MAX TEMP:  78;

KANSAS C DTWN  SUNNY     79  51  37 NW12G20   29.99F
6HR MIN TEMP:  60; 6HR MAX TEMP:  79;

LEE`S SUMMIT   SUNNY     78  55  44 W12       30.01S
6HR MIN TEMP:  60; 6HR MAX TEMP:  78;

ST JOSEPH      SUNNY     80  42  25 NW14G22   30.00F
6HR MIN TEMP:  59; 6HR MAX TEMP:  80;

CHILLICOTHE      N/A     77  50  38 NW8       29.99S
6HR MIN TEMP:  54; 6HR MAX TEMP:  77;

KIRKSVILLE     SUNNY     76  50  40 NW10G17   29.97F
6HR MIN TEMP:  58; 6HR MAX TEMP:  76;


$$
MOZ066>068-077>081-088>096-101>105-291900-
...SOUTHWEST MISSOURI...

CITY           SKY/WX    TMP DP  RH WIND       PRES   REMARKS
SPRINGFIELD    SUNNY     81  56  42 W12       30.03F
6HR MIN TEMP:  61; 6HR MAX TEMP:  81;

JOPLIN         SUNNY     83  57  41 W12       30.04F
6HR MIN TEMP:  65; 6HR MAX TEMP:  83;

BRANSON        PTSUNNY   81  55  41 SW8       30.06F

$$
MOZ032>034-039>042-045>050-055>058-069>072-291900-
...CENTRAL MISSOURI...

CITY           SKY/WX    TMP DP  RH WIND       PRES   REMARKS
COLUMBIA       MOSUNNY   81  57  43 W16       29.96S
6HR MIN TEMP:  57; 6HR MAX TEMP:  82;

JEFFERSON CITY MOSUNNY   83  57  41 SW15      29.94F
6HR MIN TEMP:  61; 6HR MAX TEMP:  83;

ROLLA          SUNNY     78  59  51 SW13      29.97F
6HR MIN TEMP:  58; 6HR MAX TEMP:  78;

SEDALIA        SUNNY     81  54  39 NW13G21   29.99R
6HR MIN TEMP:  59; 6HR MAX TEMP:  81;

WHITEMAN AFB   SUNNY     79  52  38 NW12      29.98R
WARRENSBURG    SUNNY     77  50  38 W12       29.99S
OSAGE BEACH    MOSUNNY   81  55  40 W10G17    29.99F

$$
MOZ051-052-059>065-291900-
...EAST CENTRAL MISSOURI...

CITY           SKY/WX    TMP DP  RH WIND       PRES   REMARKS
ST LOUIS INTL  MOSUNNY   86  48  26 SW14      29.94F
6HR MIN TEMP:  66; 6HR MAX TEMP:  86;

SPIRIT OF STL  MOSUNNY   83  51  33 SW13      29.93F
6HR MIN TEMP:  63; 6HR MAX TEMP:  83;

ST CHARLES     SUNNY     84  45  25 SW13      29.92F
6HR MIN TEMP:  63; 6HR MAX TEMP:  84;


$$
MOZ072>076-082>087-097>100-106>115-291900-
...SOUTH CENTRAL AND SOUTHEAST MISSOURI...

CITY           SKY/WX    TMP DP  RH WIND       PRES   REMARKS
CAPE GIRARDEAU SUNNY     83  56  39 SW13      29.98F
6HR MIN TEMP:  62; 6HR MAX TEMP:  83;

FARMINGTON     SUNNY     81  52  36 VRB7      29.99F
6HR MIN TEMP:  58; 6HR MAX TEMP:  81;

POPLAR BLUFF   SUNNY     81  65  58 SW6       30.00S
6HR MIN TEMP:  62; 6HR MAX TEMP:  82;

WEST PLAINS    SUNNY     80  58  46 SW7       30.04F
6HR MIN TEMP:  61; 6HR MAX TEMP:  80;


$$




USA.gov is the U.S. government's official web portal to all federal, state and local government web resources and services.